Weather Roundup
Issued by NWS

Home | Current Version | Previous Version | Graphics & Text | Print | Product List | Glossary Off
Versions: 1 2 3 4 5 6 7 8 9 10 11 12 13 14 15 16 17 18 19 20 21 22 23 24 25 26 27 28 29 30 31 32 33 34 35 36 37 38 39 40 41 42 43 44 45 46 47 48 49 50

000
NZUS93 KARX 231659
HRRWXR

CURRENT HOURLY OBSERVATIONS ACROSS
MUCH OF THE UPPER MISSISSIPPI VALLEY
NATIONAL WEATHER SERVICE LA CROSSE WI
1200 PM CDT SAT MAY 23 2015


...SOUTHEAST MINNESOTA...


CITY           SKY/WX    TMP DP  RH WIND       PRES   REMARKS
ROCHESTER      LGT RAIN  66  46  48 NE8       30.27S
ROCHESTER/MAYO PTSUNNY   66  43  43 CALM      30.28S
WINONA         PTSUNNY   70  50  49 NE5       30.26S
AUSTIN         PTSUNNY   68  46  45 NE7       30.25F
ALBERT LEA     CLOUDY    68  45  42 E8        30.25F
DODGE CENTER   CLOUDY    66  45  45 E9        30.26F
PRESTON        PTSUNNY   68  42  37 E3        30.28S
OWATONNA       CLOUDY    66  45  45 NE6       30.25S
FARIBAULT      CLOUDY    66  45  45 CALM      30.25S
$$

...ELSEWHERE IN MINNESOTA...


CITY           SKY/WX    TMP DP  RH WIND       PRES   REMARKS
MINNEAPOLIS    CLOUDY    67  43  41 N7        30.24S
INTNL FALLS    SUNNY     76  31  19 W10       30.15S
DULUTH         MOSUNNY   74  38  27 VRB7      30.20S
RED WING       CLOUDY    70  41  35 NW5       30.24S
REDWOOD FALLS  LGT RAIN  59  55  87 E7        30.23F
MANKATO        CLOUDY    66  45  45 NE6       30.24F
WORTHINGTON    PTSUNNY   64  46  52 SE15      30.20F
FAIRMONT       CLOUDY    66  43  42 SE13G20   30.23F
$$

...SOUTHWEST WISCONSIN...


CITY           SKY/WX    TMP DP  RH WIND       PRES   REMARKS
LA CROSSE      CLOUDY    69  48  47 S6        30.26S
PRAIRIE DU CHI CLOUDY    70  45  40 CALM      30.27S
BOSCOBEL       PTSUNNY   75  44  33 SW3       30.27F
LONE ROCK      NOT AVBL
PLATTEVILLE    SUNNY     73  43  34 S7        30.29S
FORT MC COY    MOSUNNY   73  41  31 S10       30.27R
VIROQUA        FAIR      68  45  43 S5        30.29R
WIS DELLS      SUNNY     74  39  28 S9        30.28S
$$

...ELSEWHERE IN WISCONSIN...


CITY           SKY/WX    TMP DP  RH WIND       PRES   REMARKS
MILWAUKEE      MOSUNNY   73  42  32 SE14      30.30F
MADISON        PTSUNNY   72  43  35 S8        30.29S
GREEN BAY      SUNNY     73  40  30 S9        30.28F
EAU CLAIRE     CLOUDY    69  46  43 VRB6      30.25R
BLACK RVR FLS  FAIR      74  41  30 W7        30.25S
MEDFORD        MOSUNNY   70  41  35 SW7       30.26S
WAUSAU         SUNNY     71  43  36 VRB7      30.25S
WIS RAPIDS     SUNNY     76  32  20 SW13      30.27F
MARSHFIELD     SUNNY     73  40  30 S10       30.25F
RICE LAKE      MOSUNNY   72  40  31 SE6       30.25S
$$

...NORTHEAST IOWA...


CITY           SKY/WX    TMP DP  RH WIND       PRES   REMARKS
DECORAH        CLOUDY    70  46  43 CALM      30.26S
MASON CITY     PTSUNNY   72  43  35 SE13      30.25F
CHARLES CITY   PTSUNNY   72  41  33 VRB7      30.26F
OELWEIN        PTSUNNY   73  43  33 S12       30.27F
$$

...ELSEWHERE IN IOWA...


CITY           SKY/WX    TMP DP  RH WIND       PRES   REMARKS
DES MOINES     CLOUDY    68  49  50 S14       30.23F
IOWA CITY      MOSUNNY   74  51  44 S13       30.28F
FORT DODGE     PTSUNNY   72  52  49 S12G18    30.22F
$$

...NORTHERN ILLINOIS...


CITY           SKY/WX    TMP DP  RH WIND       PRES   REMARKS
CHICAGO-OHARE  MOSUNNY   74  43  32 S10       30.30F
CHICAGO-MIDWAY MOSUNNY   77  43  29 S12       30.31F
MOLINE         SUNNY     77  46  33 SE9       30.28S
ROCKFORD       PTSUNNY   76  43  30 SW10      30.31S
PEORIA         MOSUNNY   77  51  40 VRB7      30.30F
$$

NOTE: "FAIR" INDICATES FEW OR NO CLOUDS BELOW 12,000 FEET WITH NO
SIGNIFICANT WEATHER AND/OR OBSTRUCTIONS TO VISIBILITY. WIND
SPEEDS ARE IN MILES-PER-HOUR.



USA.gov is the U.S. government's official web portal to all federal, state and local government web resources and services.